User: anonymous   Login
Location: Unspecified
(0.0000°N, 0.0000°E)
Time: 07:46:10
(UTC+00:00)
Language:

Intelsat II F-3 - Orbit

View from above orbital plane
View from above orbital plane
View from above satellite
View from above satellite

Ground track
Ground track

The orbit data is extracted from the following two-line orbital elements,

1  2717U 67026A   18112.86445331 -.00000292 +00000-0 +00000-0 0  9999
2  2717 003.1563 303.5421 0020498 300.8640 059.1750 01.00290364094048
Epoch (UTC): 22 April 2018 20:44:48
Eccentricity: 0.0020498
inclination: 3.1563°
perigee height: 35694 km
apogee height: 35867 km
right ascension of ascending node: 303.5421°
argument of perigee: 300.8640°
revolutions per day: 1.00290364
mean anomaly at epoch: 59.1750°
orbit number at epoch: 9404

The dashed part of the orbit path shows where the satellite is in the earth's shadow,  

DLR